www.pogodaiklimat.ru

Погода и климат >> Архив погоды >> Россия >> Ставропольский край >> Кисловодск


АРХИВ ПОГОДЫ в Кисловодске

Время (UTC), дата Ветер
(напр.,м/с)
 
Видим.   Явления Облачность Т
(С)
Тd
(С)
f
(%)
Тe
(С)
Тes
(С)
Комфортность P
(гПа)
Po
(гПа)
Тmin
(С)
Tmax
(С)
R
(мм)
R24
(мм)
S
(см)
09 20.05 СВ 1 10 км {гроза, ливн. осадки} 9/9 1000 м
[Cb cap]
+20.2 +14.4 69 +24 +26 комфорт 1011.7 908.1
12 20.05 ЮВ 4
{10}
10 км гроза без осадков {ливн. осадки} 10/10 600 м
[Cb cap]
+16.8 +10.3 65 +16 +16 холодно 1014.5 909.3
15 20.05 Ю 1 10 км {гроза, ливн. осадки} 10/10 600 м
[Cb cap]
+14.4 +11.9 85 +15 +15 прохладно 1016.9 910.7 +21.3 3
18 20.05 Ю 1 10 км {гроза, ливн. осадки} 10/10 600 м
[Cb cap]
+12.8 +11.9 94 +13 +13 по сезону 1017.3 910.5
21 20.05 Ю 1 10 км ясно +10.4 +8.9 90 +10 +10 по сезону 1018.3 910.4
00 21.05 Ю 2 10 км ясно +10.4 +8.0 85 +9 +9 по сезону 1018.8 910.9
03 21.05 С 1 10 км ясно +11.3 +8.8 85 +11 +12 прохладно 1018.6 911.1 +8.6
06 21.05 ЮВ 2 10 км ясно +18.4 +9.0 54 +19 +30 тепло 1015.1 910.3
09 21.05 ЮВ 2
{10}
10 км 8/8 600 м
[Cb cap]
+18.5 +11.0 62 +19 +23 по сезону 1015.8 911.1
12 21.05 ЮВ 5-11
{12}
10 км 4/4 600 м
[Cu med, cong]
+19.6 +10.2 55 +21 +24 комфорт 1015.2 910.9
15 21.05 ЮВ 5-10
{12}
10 км 3/3 600 м
[Sc diur, vesp Ac cuf]
+18.5 +9.3 55 +19 +19 по сезону 1015.0 910.3 +20.2
18 21.05 Ю 5
{11}
10 км 3/0
[Ac cast]
+14.7 +7.9 64 +13 +13 по сезону 1016.3 910.2
21 21.05 Ю 5
{11}
10 км 10/0
[Ac und]
+12.7 +8.0 73 +11 +11 по сезону 1016.8 909.9
00 22.05 С 2 10 км 10/0
[Ac inh]
+10.2 +8.3 88 +9 +9 по сезону 1016.1 908.4
03 22.05 С 1 10 км 8/0
[Ac lent Ci]
+11.4 +9.3 87 +11 +12 прохладно 1015.3 908.1 +9.6
06 22.05 С 1 10 км 10/0
[Ac lent]
+18.3 +10.7 61 +20 +22 тепло 1011.8 907.4
09 22.05 С 1 10 км 10/8 600 м
[Cb cap Ac und]
+20.0 +11.5 58 +23 +24 комфорт 1010.4 906.8
12 22.05 Ю 2
{10}
10 км гроза, ливневой дождь 10/10 300 м
[Cb cap]
+11.3 +10.8 97 +10 +10 очень
холодно
1016.1 908.9
15 22.05 В 1 10 км {гроза, ливн. осадки} 9/4 600 м
[Cb cap Ac cuf]
+15.3 +12.0 81 +16 +16 прохладно 1014.2 908.6 +21.6 34
18 22.05 Ю 1 10 км {гроза, ливн. осадки} 10/3 600 м
[Cb cap Ac cuf Ci fib]
+11.0 +10.2 95 +11 +11 прохладно 1016.4 909.0
21 22.05 Ю 2 10 км ясно +9.6 +8.9 95 +8 +8 прохладно 1015.8 908.0
00 23.05 Ю 1 10 км ясно +8.2 +7.3 94 +7 +7 прохладно 1016.1 907.7
03 23.05 Ю 1 10 км 6/0
[Ci fib]
+8.1 +6.5 90 +7 +8 холодно 1016.4 907.8 +6.8
06 23.05 С 1 10 км 6/0
[Ac cast Ci fib]
+17.4 +9.0 58 +18 +28 по сезону 1011.2 906.5
09 23.05 Ю 2 10 км 9/9 600 м
[Cb cap]
+20.2 +7.6 44 +22 +24 комфорт 1009.0 905.4
12 23.05 СВ 1 10 км 10/10 600 м
[Cb cap]
+19.1 +9.5 54 +21 +21 комфорт 1009.1 905.2
15 23.05 штиль 0 10 км ливневой дождь 10/10 600 м
[Cb cap]
+13.7 +12.6 93 +13 +13 холодно 1012.0 906.1 +21.7 3
18 23.05 З 1 10 км гроза, ливневой дождь 10/10 600 м
[Cb cap]
+12.4 +11.4 94 +12 +12 прохладно 1014.1 907.4
21 23.05 Ю 2 10 км {гроза, ливн. осадки} 9/9 600 м
[Cb cap]
+9.8 +9.1 95 +8 +8 прохладно 1014.9 907.2
00 24.05 Ю 2 10 км {гроза, ливн. осадки} ясно +9.0 +7.9 93 +7 +7 прохладно 1014.4 906.4
03 24.05 Ю 2 10 км ясно +8.3 +7.4 94 +6 +7 очень
холодно
1014.8 906.5 +7.3 3
06 24.05 СЗ 1 10 км 3/3 1000 м
[Cu med, cong]
+18.8 +7.4 47 +20 +30 тепло 1010.4 906.2
09 24.05 В 1 10 км 10/8 1000 м
[Sc diur, vesp Ci]
+20.2 +9.0 48 +23 +26 комфорт 1009.0 905.5
12 24.05 ЮВ 1 10 км 10/10 1000 м
[Cb cap]
+19.5 +9.4 52 +22 +22 комфорт 1009.2 905.4
15 24.05 Ю 4 10 км 9/9 600 м
[Sc]
+18.7 +9.6 55 +19 +19 по сезону 1009.3 905.3 +21.8
18 24.05 Ю 4 10 км 5/3 600 м
[Sc Ci]
+15.7 +8.9 64 +15 +15 по сезону 1010.5 905.3
21 24.05 Ю 5 10 км 10/10 600 м
[Sc]
+15.2 +9.1 67 +14 +14 по сезону 1010.1 904.8
00 25.05 ЮЗ 2 10 км 10/10 600 м
[Sc]
+13.4 +9.4 77 +13 +13 тепло 1009.5 903.7
03 25.05 Ю 2 10 км 10/6 600 м
[Sc Ci]
+12.6 +9.6 82 +12 +12 по сезону 1009.8 903.6 +12.0
06 25.05 ЮВ 3 10 км 8/4 600 м
[Sc Ac cast Cs]
+18.4 +9.3 55 +19 +23 тепло 1006.5 902.6
09 25.05 Ю 7-13
{14}
10 км 8/8 600 м
[Cb cap]
+19.5 +9.7 53 +20 +21 по сезону 1003.9 900.7
12 25.05 СЗ 1
{18}
10 км в посл. час гроза 4/4 600 м
[Cb cap]
+26.2 +8.7 33 +26 +35 жарко 1001.1 900.3
15 25.05 ЮВ 1 10 км 6/3 600 м
[Sc diur, vesp Ac cuf]
+19.0 +9.3 53 +21 +22 комфорт 1007.0 903.3 +26.4
18 25.05 Ю 2 10 км 3/3 600 м
[Sc diur, vesp]
+13.6 +9.9 78 +13 +13 прохладно 1011.1 905.2
21 25.05 Ю 1 10 км ясно +12.2 +10.7 91 +12 +12 по сезону 1012.8 906.2
00 26.05 Ю 2 10 км 4/0
[Ci fib]
+10.0 +8.6 91 +8 +8 прохладно 1013.6 906.1
03 26.05 С 1 10 км 5/0
[Ac lent Ci]
+11.2 +8.1 81 +11 +12 прохладно 1013.5 906.4 +9.0
06 26.05 ЮВ 2 10 км 9/4 600 м
[Cu med, cong Ac lent Ci fib]
+16.7 +10.4 66 +17 +21 по сезону 1011.4 906.5
09 26.05 Ю 2 10 км слаб. ливневой дождь, в посл. час гроза 10/10 600 м
[Cb cap]
+15.7 +10.5 71 +16 +16 прохладно 1012.4 907.1
12 26.05 Ю 2 10 км {гроза, ливн. осадки} 10/8 600 м
[Cb cap Ac cuf Ci fib]
+15.3 +9.5 68 +15 +16 очень
холодно
1013.9 908.2
15 26.05 С 1 10 км 9/4 1000 м
[Cu med, cong Ac cuf Ci fib]
+18.2 +10.3 60 +20 +20 по сезону 1012.3 907.8 +21.5 5
18 26.05 Ю 3 10 км 4/0
[Ac As]
+11.9 +9.7 86 +10 +10 холодно 1016.5 909.4
21 26.05 Ю 1 10 км 10/3 600 м
[Cb cap Ac und]
+10.9 +9.0 88 +11 +11 по сезону 1018.1 910.5
00 27.05 СВ 1 10 км 10/0
[Ac und]
+11.1 +8.8 86 +11 +11 по сезону 1017.3 909.8
03 27.05 Ю 1 10 км 10/0
[Ac As]
+10.7 +8.9 89 +10 +11 прохладно 1018.6 910.8 +9.8
06 27.05 СВ 1 10 км 9/8 1000 м
[Sc Ac lent]
+15.5 +8.6 63 +16 +18 по сезону 1017.5 911.5

 

Местоположение метеостанции Кисловодск (Ставропольский край, Россия): широта 43.90 долгота 42.72 высота над уровнем моря 943 м.

В архиве по умолчанию представлена погода в Кисловодске за последнюю неделю. Архивные данные за месяц целиком и за предыдущие месяцы, начиная с января 2011 года, Вы можете получить, выбрав интересующий диапазон дат из раскрывающегося списка и нажав кнопку "Ввод!".


*Определитесь, кто Вы:
робот инопланетянин человек

Внимание! Время в таблицах - всемирное. Для получения местного времени необходимо прибавить поправку, которая равна 3 ч.

Смотрите также архив погоды в соседних городах и на ближайших метеорологических станциях:

Погода в Шаджатмазе (Карачаево-Черкессия, Россия) (19 км)
Погода в Минеральных Водах (Ставропольский край, Россия) (47 км)
Погода в Тырныаузе (Кабардино-Балкария, Россия) (60 км)
Погода в Черкесске (Карачаево-Черкессия, Россия) (63 км)
Погода в Георгиевске (Ставропольский край, Россия) (64 км)
Погода в Архызе (Карачаево-Черкессия, Россия) (71 км)
Погода на Леднике Гарабаши (Карачаево-Черкессия, Россия) (73 км)
Погода в Терсколе (Кабардино-Балкария, Россия) (74 км)
Погода в Чегете (Кабардино-Балкария, Россия) (76 км)
Погода в Нальчике (Кабардино-Балкария, Россия) (84 км)

Пояснения к столбцам:

Ветер - указаны скорость ветра в м/с - средняя за 10 мин, порывы в срок и между сроками (в фигурных скобках) и направление, откуда дует ветер: С - северный, СВ - северо-восточный, В - восточный, ЮВ - юго-восточный, Ю - южный, ЮЗ - юго-западный, З - западный, СЗ - северо-западный.
Видимость - горизонтальная дальность видимости в метрах или километрах. При видимости от 1 до 10 км при отсутствии осадков обычно наблюдается дымка, при ухудшении видимости до 1 км и менее - туман. В сухую погоду видимость может ухудшаться дымом, пылью или мглою.
Явления - указаны атмосферные явления, наблюдавшиеся в срок или в последний час перед сроком; фигурными скобками обозначены явления, наблюдавшиеся между сроками (за 1-3 часа до срока); квадратными скобками обозначены град или гололедные отложения с указанием их диаметра в мм.
Облачность - указаны через наклонную черту общая и нижняя облачность в баллах и высота нижней границы облаков в метрах; квадратными скобками обозначены формы облаков: Ci - перистые, Cs - перисто-слоистые, Cc - перисто-кучевые, Ac - высококучевые, As - высокослоистые, Sc - слоисто-кучевые, Ns - слоисто-дождевые, Cu - кучевые, Cb - кучево-дождевые. Подробнее классификацию облаков см. в Атласе облаков (PDF).
T - Температура воздуха - температура, измеренная на высоте 2 м над землей.
Td - Температура точки росы - температура, при понижении до которой содержащийся в воздухе водяной пар достигнет насыщения.
f - Относительная влажность воздуха - влажноcть воздуха, измеренная на высоте 2 м над землей.
Te - Эффективная температура - температура, которую ощущает одетый по сезону человек в тени. Характеристика душности погоды. При расчете учитывается влияние влажности воздуха и скорости ветра на теплоощущения человека.
Tes - Эффективная температура на солнце - температура, которую ощущает человек, с поправкой на солнечный нагрев. Характеристика знойности погоды. Зависит от высоты солнца над горизонтом, облачности и скорости ветра. Ночью, в пасмурную погоду, а также при ветре 12 м/с и более поправка равна нулю.
P - Атмосферное давление - приведенное к уровню моря атмосферное давление.
Po - Атмосферное давление - измеренное на уровне метеостанции атмосферное давление.
Tmin - Минимальная температура - минимум температуры воздуха на высоте 2 м над землей.
Tmax - Максимальная температура - максимум температуры воздуха на высоте 2 м над землей.
R - Количество осадков - Количество выпавших осадков за период времени, мм. При наведении курсора мыши на число - период времени, за который выпало указанное количество осадков.
R24 - Количество осадков - Количество выпавших осадков за 24 часа, мм.
S - Снежный покров - Высота снежного покрова, см. При наведении курсора мыши на число - состояние снежного покрова и степень покрытия местности в баллах.